Temperature
21 21 21 21 17 14 12 13 13 12 10 9 9 8 7 7 8 8 8 8 9 9 9 10 10 11 11 11 12 12 12 13 13 13 13 13 13 13 13 13 13 13 14 14 14 14 15 15 16
21 21 21 19 14 12 12 12 12 12 10 9 9 8 8 9 9 9 8 8 9 9 10 10 10 11 11 11 11 11 11 12 12 12 13 13 13 13 12 13 13 13 13 13 13 14 14 14 15
22 22 19 13 11 11 12 12 11 11 11 10 9 9 9 9 9 8 8 8 9 9 10 10 10 10 10 11 11 11 10 11 11 11 11 12 12 12 12 12 12 12 12 13 13 13 13 14 14
22 20 16 12 10 10 10 10 12 13 11 9 9 9 9 8 8 7 8 9 9 9 9 10 10 10 10 10 10 10 10 10 10 10 10 10 11 11 11 12 12 12 12 12 12 12 13 13 13
22 18 12 11 10 10 10 10 10 10 10 9 9 8 8 7 7 8 8 9 9 9 9 9 9 9 9 9 9 10 9 9 9 9 9 8 9 10 10 11 11 11 12 12 12 12 12 12 13
20 15 11 10 11 11 10 10 10 9 9 9 9 8 6 7 7 8 8 8 8 8 8 9 9 9 9 9 9 9 9 8 8 7 7 6 7 8 8 9 10 10 10 10 11 11 12 12 12
19 12 11 11 11 11 11 11 9 8 9 9 9 8 6 6 7 7 8 8 8 8 8 8 8 8 8 8 7 7 6 6 6 6 5 5 6 6 6 7 8 8 9 8 9 10 11 11 12
20 13 12 12 11 10 10 10 9 8 8 9 9 7 5 5 7 8 8 8 8 7 7 7 6 6 6 6 5 5 4 4 4 4 3 4 4 5 5 5 6 6 6 7 8 9 10 11 11
19 12 12 12 11 10 10 9 8 8 7 7 6 6 5 6 7 8 8 8 7 6 6 5 5 4 4 4 4 3 3 3 3 2 2 3 3 4 4 4 4 4 5 6 7 7 8 9 10
15 10 12 12 11 10 10 9 8 8 7 6 5 6 6 7 7 7 7 6 5 5 4 4 3 3 2 2 2 2 2 2 2 1 0 1 2 2 2 3 3 3 4 4 5 6 7 8 9
13 10 11 11 11 11 9 9 9 7 6 6 6 6 6 7 6 6 5 5 4 3 3 2 2 2 2 2 1 1 1 1 1 -0 -1 -1 0 1 1 2 2 2 3 3 4 4 5 6 7
12 11 12 11 11 10 9 8 8 7 7 7 7 6 6 6 5 5 5 4 3 3 2 2 2 2 1 1 1 1 1 0 -1 -2 -2 -2 -2 -1 -1 -0 -0 0 1 1 2 3 3 4 4
10 10 11 11 11 10 9 8 8 7 7 7 6 6 6 5 5 5 4 3 3 3 2 2 2 1 1 1 1 0 0 -0 -1 -2 -3 -3 -4 -3 -3 -3 -2 -2 -1 -1 -0 1 2 3 3
11 10 10 10 10 9 8 8 8 7 7 6 6 6 5 5 5 4 4 3 3 2 1 1 1 1 0 0 0 -0 -0 -1 -2 -3 -4 -4 -4 -5 -5 -4 -4 -4 -4 -3 -3 -2 -1 1 2
11 9 10 10 10 9 8 7 7 7 7 6 6 5 5 4 4 4 3 3 2 1 1 -0 -0 -0 -0 -0 -1 -1 -1 -2 -2 -3 -4 -5 -5 -5 -6 -6 -6 -6 -5 -5 -5 -4 -3 -2 -0
11 10 10 10 9 9 9 6 8 8 7 6 6 5 5 4 4 3 3 2 2 1 0 -1 -1 -0 -0 -0 -1 -1 -2 -2 -3 -4 -4 -5 -5 -6 -6 -7 -7 -7 -6 -6 -6 -6 -5 -5 -4
12 11 11 10 10 9 8 6 8 8 7 6 6 5 4 3 3 3 2 2 2 1 -0 -1 -1 -1 -1 -1 -1 -2 -2 -3 -4 -4 -5 -5 -6 -6 -7 -8 -8 -8 -7 -7 -7 -7 -7 -6 -6
14 12 11 11 10 9 7 5 7 8 7 6 6 5 4 4 3 2 2 2 1 0 -1 -1 -1 -1 -1 -1 -1 -2 -2 -3 -4 -5 -5 -6 -6 -6 -7 -8 -8 -8 -8 -8 -7 -7 -7 -7 -6
15 13 12 11 12 9 6 5 6 6 6 6 6 5 4 3 2 2 2 2 1 -0 -1 -2 -2 -2 -2 -2 -2 -3 -3 -4 -5 -5 -6 -6 -7 -7 -8 -8 -9 -9 -9 -9 -9 -8 -8 -7 -7
14 13 12 11 12 9 6 6 6 6 6 6 6 5 4 3 3 3 2 1 -0 -1 -2 -2 -2 -3 -3 -3 -4 -4 -5 -5 -6 -6 -7 -7 -8 -8 -9 -9 -9 -9 -9 -9 -9 -9 -9 -8 -8
12 14 13 12 11 9 7 7 5 6 6 6 5 4 4 3 3 2 1 0 -1 -2 -2 -3 -3 -4 -4 -4 -5 -5 -5 -6 -6 -7 -8 -8 -9 -9 -9 -10 -10 -10 -10 -10 -10 -10 -10 -10 -9
14 13 13 11 9 9 9 8 5 4 5 5 4 4 3 3 2 2 1 -1 -1 -2 -3 -3 -4 -4 -5 -5 -6 -6 -7 -7 -8 -9 -9 -9 -9 -9 -10 -10 -11 -11 -11 -11 -11 -11 -11 -11 -10
13 13 13 12 10 9 8 8 6 4 4 3 4 3 3 2 2 1 0 -1 -2 -2 -3 -4 -4 -5 -5 -6 -7 -7 -8 -9 -9 -9 -9 -9 -9 -10 -11 -11 -11 -11 -11 -11 -11 -11 -11 -11 -11
12 12 12 10 9 10 9 7 7 3 4 3 3 2 2 2 1 1 0 -1 -2 -3 -4 -4 -5 -5 -6 -7 -8 -8 -9 -9 -9 -10 -10 -11 -11 -11 -11 -12 -12 -12 -12 -12 -12 -12 -11 -11 -10
10 11 11 12 10 10 10 8 7 4 4 4 3 2 2 2 1 1 -1 -2 -3 -4 -5 -5 -5 -6 -7 -7 -8 -9 -9 -10 -10 -11 -11 -12 -12 -12 -12 -13 -13 -13 -13 -12 -12 -12 -12 -11 -10
11 11 11 12 10 9 9 9 5 4 5 5 4 2 2 1 1 -0 -2 -3 -4 -5 -5 -5 -6 -7 -7 -8 -9 -9 -10 -10 -11 -11 -12 -12 -13 -13 -13 -14 -14 -14 -13 -13 -12 -12 -12 -11 -10
12 10 10 8 9 8 8 7 5 4 4 2 2 2 1 1 0 -1 -3 -4 -4 -5 -5 -6 -6 -7 -8 -9 -10 -10 -11 -11 -11 -12 -12 -13 -13 -14 -14 -14 -14 -14 -13 -13 -13 -13 -12 -11 -10
12 10 7 9 9 9 8 7 7 3 3 2 1 1 1 0 -0 -2 -3 -4 -5 -5 -5 -6 -7 -8 -8 -9 -10 -11 -11 -12 -12 -13 -13 -13 -14 -14 -14 -14 -14 -14 -14 -13 -13 -13 -12 -11 -10
12 11 9 7 7 8 7 8 6 3 3 1 2 1 1 -0 -2 -3 -4 -4 -5 -5 -5 -6 -7 -8 -9 -10 -11 -11 -12 -12 -13 -13 -14 -14 -14 -14 -14 -14 -14 -14 -14 -14 -13 -12 -12 -11 -10
10 11 9 9 8 6 6 7 5 3 4 3 2 1 0 -1 -3 -3 -4 -4 -4 -5 -6 -7 -8 -9 -10 -11 -11 -12 -12 -13 -13 -14 -14 -14 -14 -14 -14 -14 -14 -14 -14 -13 -13 -12 -11 -10 -10
Wind_Speed
12 9 4 5 8 10 9 7 4 6 6 5 8 11 10 8 9 9 4 12 17 20 25 28 31 31 31 31 32 31 31 32 31 31 32 32 31 30 31 30 30 29 27 24 20 16 14 14 15
7 5 7 7 8 8 7 6 9 6 10 9 8 7 8 8 3 4 7 13 22 25 27 28 30 31 31 31 32 32 31 32 31 30 30 30 30 30 30 30 30 30 30 29 27 23 18 15 15
3 7 7 7 7 5 5 4 11 13 10 5 6 6 6 5 5 6 9 17 25 27 28 28 31 32 32 31 32 32 31 31 32 31 30 30 29 30 29 30 30 30 30 30 29 28 25 21 17
5 7 8 10 13 7 5 5 3 5 9 9 6 7 6 9 6 8 13 23 22 23 27 28 31 32 32 31 31 32 31 31 31 31 31 30 30 30 29 30 30 30 30 30 29 29 29 27 22
5 7 9 7 7 5 6 11 12 10 6 7 7 9 7 10 11 11 16 22 18 20 26 28 31 32 32 31 31 31 31 31 30 30 30 30 30 30 30 31 31 30 30 30 29 29 30 30 28
6 6 8 6 6 4 4 7 5 10 7 5 8 8 7 8 11 11 16 18 21 22 26 29 31 32 32 31 32 32 31 31 31 30 30 29 30 30 30 32 32 31 31 29 29 29 30 29 29
6 6 7 8 5 3 2 4 6 6 8 7 4 7 6 9 8 9 15 18 20 23 26 28 29 29 30 29 31 31 30 31 31 30 30 28 29 29 30 32 32 31 31 29 29 30 30 30 28
6 7 7 5 6 3 2 4 5 7 6 5 5 7 6 4 6 9 11 13 16 21 24 26 27 28 28 26 28 30 29 30 30 29 29 28 28 28 28 30 31 31 30 30 30 31 30 30 28
6 7 5 5 8 7 5 5 5 7 10 10 9 9 7 5 8 11 11 12 13 17 21 26 27 29 28 26 26 28 28 29 28 27 27 26 24 24 25 29 30 30 30 30 30 31 30 29 27
8 6 3 2 7 9 7 6 7 6 9 9 9 9 8 9 10 11 11 12 13 14 15 23 24 26 26 23 23 23 24 25 25 24 23 23 22 24 25 27 28 29 29 30 30 30 27 25 22
7 7 6 8 10 9 7 5 5 9 6 6 9 7 7 9 9 9 8 8 9 9 12 17 19 24 24 21 21 21 22 23 23 24 22 22 21 22 23 21 22 23 25 24 26 24 22 22 21
8 8 7 6 6 6 6 6 6 5 7 10 11 9 8 8 7 6 7 8 8 8 9 13 18 23 24 22 21 20 21 20 21 22 22 21 19 19 20 19 20 19 20 21 21 20 22 22 22
8 6 5 9 13 10 10 8 8 8 10 10 11 10 9 7 5 6 7 7 7 8 10 12 18 23 23 21 21 20 21 21 22 21 21 22 18 17 18 18 18 18 20 19 18 19 20 19 19
8 10 10 9 10 5 11 7 6 7 9 10 10 9 7 7 6 7 7 7 8 9 10 13 15 22 22 20 21 20 21 22 22 21 22 23 21 19 18 17 17 17 20 20 18 17 15 15 15
9 9 6 4 6 6 8 6 3 8 10 10 9 8 7 5 7 7 6 6 7 6 7 10 15 19 19 18 19 19 20 22 20 20 22 23 23 21 19 15 14 18 21 20 18 15 14 12 12
6 6 4 5 7 7 7 5 5 7 11 9 8 7 6 5 7 6 6 6 6 6 6 9 15 15 16 16 17 17 19 20 20 21 21 23 23 23 20 13 13 18 19 17 13 9 11 11 12
2 2 3 5 8 7 5 5 7 6 10 9 7 7 7 6 7 6 5 5 5 5 6 7 11 12 14 15 15 15 15 17 18 20 21 23 23 23 21 13 14 17 15 13 12 12 12 13 13
4 5 4 6 6 6 6 6 7 6 10 8 6 6 7 7 6 4 3 4 5 6 6 7 10 12 14 14 13 12 12 15 17 18 20 22 23 23 21 16 17 17 11 9 10 12 12 12 13
1 5 4 5 3 5 7 8 8 6 8 8 6 7 8 7 5 4 3 5 6 7 8 8 8 9 11 8 10 10 10 8 13 18 20 21 23 23 19 17 16 16 9 10 11 11 13 12 12
6 6 3 2 0 4 5 6 6 6 7 7 8 8 7 6 3 3 6 6 5 5 6 7 8 7 10 9 8 7 6 7 12 14 17 19 21 21 19 18 14 14 9 10 10 10 8 11 11
5 3 2 4 1 3 6 3 5 4 4 5 7 6 6 6 4 4 4 3 3 5 7 10 8 7 10 13 11 11 5 4 5 5 8 17 20 19 18 20 16 14 9 9 10 8 9 11 11
0 3 2 5 3 3 5 4 7 7 5 5 6 5 5 4 3 1 1 1 3 5 6 7 7 7 10 13 9 10 10 8 8 7 7 15 18 18 18 20 17 15 12 8 9 9 9 10 11
4 3 3 2 4 1 2 3 5 6 7 7 6 7 6 5 4 2 0 2 4 5 6 6 7 6 8 11 9 9 9 8 8 9 9 9 14 17 18 19 16 16 12 9 8 9 9 8 10
3 2 2 4 3 3 5 6 6 7 8 7 6 7 7 5 3 1 2 4 5 5 6 7 7 7 7 8 8 9 10 11 13 13 10 10 8 11 18 19 16 17 13 10 9 8 11 10 11
8 6 5 6 4 5 2 5 6 5 6 8 9 8 7 5 3 1 4 6 7 8 7 7 8 7 8 8 9 10 9 10 11 12 11 12 10 9 10 17 15 14 15 16 14 9 11 11 12
5 4 3 3 5 7 5 5 4 5 4 6 8 8 6 4 1 2 4 6 6 7 7 7 8 8 8 9 9 8 8 9 9 11 12 12 11 10 15 18 17 17 18 18 14 10 11 11 12
2 2 4 4 3 5 7 6 4 3 4 6 7 6 6 3 1 3 5 6 6 7 7 8 8 8 9 9 9 8 8 9 11 10 10 9 12 16 18 19 16 16 17 15 12 10 12 12 12
2 6 5 2 2 6 8 7 5 9 10 8 8 7 5 2 1 4 5 5 6 6 7 8 7 8 9 9 8 13 9 10 11 10 12 11 14 17 17 15 14 14 14 14 11 11 12 13 13
1 2 3 3 4 3 6 8 4 9 10 10 9 8 6 4 0 2 4 5 6 6 7 7 8 9 9 9 9 10 11 11 12 10 11 12 14 16 14 14 14 15 15 12 12 13 14 14 14
2 4 5 2 3 4 4 8 1 7 8 9 9 7 6 3 1 1 4 5 6 7 8 8 9 9 10 10 10 10 11 10 11 12 12 15 13 15 16 16 15 16 16 14 14 15 14 14 14
Wind_Direction
334 355 54 56 62 64 57 14 41 110 73 60 62 77 86 73 78 100 303 341 6 18 13 12 15 14 14 16 17 17 18 17 17 17 15 14 13 12 11 9 6 3 358 351 342 330 321 315 311
346 33 49 54 67 70 58 18 58 84 138 132 78 73 74 74 61 64 8 17 33 28 18 13 16 15 14 15 16 14 15 15 14 15 15 14 12 11 10 9 6 3 360 356 351 342 326 312 303
50 56 61 58 60 71 76 36 94 79 84 90 82 56 57 40 23 41 25 36 36 29 18 11 17 15 14 14 15 13 13 13 12 11 11 11 11 10 9 7 4 2 359 356 353 350 343 328 311
78 52 63 68 75 41 37 331 283 91 68 45 96 61 56 23 39 47 43 42 36 28 20 14 17 15 14 14 14 12 12 12 10 9 8 9 9 8 7 6 2 1 358 355 354 353 352 346 331
64 70 73 67 75 70 34 23 46 56 66 38 75 87 56 20 48 47 45 41 34 25 22 17 16 15 13 13 13 11 11 10 9 8 8 8 8 6 6 5 0 359 356 354 354 354 351 349 344
63 68 82 89 102 108 59 34 55 54 73 76 87 101 66 15 46 39 41 37 33 27 23 18 16 14 12 11 11 10 10 9 8 8 7 9 8 5 4 2 357 356 354 353 353 351 349 346 344
89 77 88 108 108 75 87 71 44 50 47 28 81 94 91 28 38 42 41 34 31 29 25 18 16 14 11 10 10 9 8 7 8 7 7 9 7 4 3 359 355 354 353 354 352 350 347 345 343
97 93 90 102 126 137 64 69 64 55 45 18 61 93 83 37 37 43 40 33 30 28 24 17 15 12 7 6 9 8 7 6 7 7 8 9 7 5 3 357 354 353 352 353 351 349 347 345 342
68 75 94 144 153 146 135 104 68 53 73 61 60 83 107 80 48 42 35 29 27 24 20 17 16 12 6 5 5 6 5 4 4 6 9 10 7 3 2 355 353 352 351 352 348 348 348 346 342
56 89 71 28 135 132 120 106 116 91 77 76 76 77 77 61 51 45 35 24 21 20 17 17 17 11 5 4 359 6 3 360 358 1 11 10 7 3 0 354 353 352 351 350 346 346 348 347 340
64 95 89 65 90 103 103 81 93 119 87 114 120 108 82 69 57 53 44 35 29 20 14 10 16 11 6 3 1 9 2 359 357 358 9 10 7 3 359 355 350 350 352 348 343 343 344 342 338
85 65 94 111 97 89 100 101 82 95 135 143 134 126 104 85 71 68 58 44 30 19 6 6 20 14 6 6 1 6 2 358 356 356 6 8 6 3 358 353 346 349 349 343 341 338 336 337 334
82 95 67 87 79 80 89 90 103 120 138 130 120 112 116 115 103 82 70 55 34 23 15 12 21 15 6 7 3 0 360 357 352 354 2 5 4 360 354 349 343 343 345 340 338 336 335 334 332
107 105 106 98 95 100 109 110 107 154 144 125 122 126 134 127 110 84 65 48 35 29 18 8 18 14 6 8 3 358 357 354 351 352 358 1 1 357 353 344 341 344 342 335 331 327 332 328 328
97 94 101 137 120 135 117 73 129 161 140 131 137 145 147 124 93 90 83 64 45 32 16 11 14 11 4 5 1 357 355 352 350 351 356 358 357 355 350 342 345 346 341 336 332 328 330 327 327
93 105 135 194 157 169 118 138 210 166 137 141 152 155 144 110 94 100 87 78 57 34 25 18 10 5 2 1 355 352 353 352 349 351 355 355 354 353 346 339 347 346 342 340 335 336 332 328 325
118 154 182 193 191 168 143 168 215 170 137 143 157 157 146 114 99 97 81 81 66 38 26 15 3 358 355 353 350 348 350 350 349 352 353 352 352 350 344 335 345 347 344 340 340 340 334 330 328
207 198 190 206 195 147 135 166 187 154 131 145 148 131 129 116 116 118 93 77 58 32 20 11 356 351 351 351 351 350 352 352 351 351 351 352 350 347 344 346 345 347 344 340 339 336 333 331 328
189 137 167 219 172 127 150 166 187 148 135 153 142 119 120 118 131 142 80 54 38 24 9 1 352 348 356 356 357 352 349 344 346 348 348 349 348 346 344 350 345 347 341 335 335 334 335 335 333
90 108 151 245 313 116 143 188 198 171 174 166 139 133 129 120 127 72 45 36 25 9 354 359 357 351 357 355 346 339 327 323 333 333 339 344 344 343 347 345 341 342 337 332 333 333 336 331 334
52 94 200 209 217 102 130 183 191 202 182 127 117 128 130 128 103 54 26 19 2 1 359 6 353 348 352 352 349 345 327 313 326 323 333 337 337 336 339 337 334 335 332 329 327 328 334 327 324
287 215 207 146 149 255 182 272 211 196 192 156 145 133 128 123 110 81 341 355 6 357 357 356 347 342 349 353 351 349 346 335 329 326 320 325 329 328 334 332 331 330 326 322 323 335 319 318 318
266 245 224 175 181 272 198 226 266 168 199 195 178 158 157 158 152 180 249 14 8 358 354 348 339 337 346 348 344 340 334 326 324 325 321 320 324 325 329 327 330 327 321 316 312 314 313 311 306
300 46 79 58 85 294 215 187 251 201 200 181 168 167 178 179 189 206 4 3 354 354 350 341 337 335 340 342 338 333 330 328 330 331 327 328 323 324 326 325 328 325 320 315 312 309 309 305 300
33 55 20 352 354 268 230 198 254 204 175 172 170 179 188 197 211 332 358 353 349 347 341 335 338 337 339 339 336 329 328 327 326 329 329 329 329 327 319 323 322 321 319 316 315 310 307 302 300
9 87 120 269 271 293 319 255 269 217 181 136 146 167 185 202 226 11 7 358 345 338 336 337 341 339 338 337 333 325 327 330 329 327 328 327 327 322 319 321 317 316 317 316 312 307 305 304 303
52 97 150 151 296 285 285 287 292 222 169 142 155 176 192 198 50 24 8 357 345 340 341 340 340 339 336 333 327 329 327 323 324 323 323 324 324 324 324 319 314 313 312 311 308 305 304 301 298
145 140 92 120 301 294 294 285 252 203 209 182 186 195 196 199 33 23 358 348 344 343 341 339 340 335 326 325 323 339 322 318 320 322 324 323 322 322 319 319 315 311 310 307 304 304 301 300 297
193 201 142 138 178 226 289 278 245 190 184 183 192 194 197 204 77 353 343 347 345 344 342 340 339 334 328 322 315 319 318 318 319 320 320 321 319 319 319 319 317 314 310 306 304 301 300 299 299
233 218 159 183 253 209 243 276 97 156 162 166 177 188 195 186 143 5 1 352 346 346 344 342 337 333 327 321 321 323 321 319 320 321 320 321 317 319 321 320 317 315 314 308 302 298 298 294 295
Height
1545 1544 1543 1545 1553 1573 1594 1599 1594 1598 1602 1605 1601 1602 1609 1614 1619 1630 1629 1621 1616 1612 1609 1606 1602 1598 1594 1591 1587 1584 1581 1577 1574 1572 1569 1566 1563 1561 1558 1556 1553 1551 1549 1547 1546 1544 1543 1541 1540
1545 1545 1546 1548 1568 1593 1605 1603 1600 1598 1602 1604 1604 1609 1612 1616 1621 1625 1625 1621 1617 1614 1611 1607 1603 1599 1595 1591 1588 1584 1581 1577 1574 1571 1568 1566 1563 1560 1557 1555 1552 1549 1547 1545 1543 1541 1540 1539 1537
1546 1545 1550 1563 1588 1603 1606 1605 1603 1602 1604 1604 1608 1612 1616 1622 1626 1626 1625 1622 1618 1614 1611 1607 1603 1599 1595 1591 1588 1584 1580 1576 1573 1570 1567 1564 1561 1558 1556 1553 1550 1547 1545 1542 1540 1538 1536 1535 1534
1547 1549 1562 1581 1600 1608 1609 1607 1602 1600 1603 1606 1609 1616 1623 1627 1628 1627 1625 1622 1618 1614 1611 1607 1603 1599 1595 1591 1587 1583 1579 1575 1572 1568 1565 1561 1558 1556 1553 1550 1547 1544 1542 1540 1537 1535 1533 1531 1530
1549 1555 1576 1597 1606 1610 1609 1606 1602 1602 1606 1611 1610 1621 1627 1630 1628 1626 1624 1621 1617 1614 1610 1607 1603 1598 1594 1590 1586 1582 1577 1573 1569 1565 1562 1558 1555 1552 1549 1546 1544 1541 1538 1535 1533 1531 1529 1527 1525
1552 1563 1589 1606 1609 1610 1610 1608 1606 1607 1610 1613 1616 1621 1631 1631 1628 1626 1624 1621 1617 1613 1610 1606 1601 1597 1593 1589 1584 1580 1576 1571 1567 1562 1558 1554 1551 1548 1545 1542 1539 1536 1533 1530 1528 1526 1525 1523 1521
1557 1574 1596 1605 1609 1609 1610 1609 1610 1611 1612 1614 1617 1622 1630 1629 1628 1626 1624 1621 1617 1613 1609 1604 1600 1595 1591 1586 1582 1577 1573 1568 1564 1559 1555 1550 1547 1544 1541 1538 1534 1531 1528 1524 1522 1520 1519 1517 1516
1561 1575 1594 1602 1607 1610 1610 1611 1614 1614 1615 1617 1619 1623 1629 1630 1629 1626 1623 1620 1616 1611 1607 1602 1598 1593 1588 1584 1579 1575 1571 1566 1562 1557 1552 1548 1544 1541 1537 1534 1530 1527 1523 1519 1516 1514 1512 1510 1510
1565 1583 1599 1600 1604 1609 1611 1613 1616 1620 1618 1619 1622 1625 1629 1629 1628 1625 1622 1618 1614 1610 1605 1601 1596 1591 1587 1582 1578 1574 1569 1565 1560 1554 1550 1546 1542 1538 1533 1530 1526 1522 1519 1515 1512 1509 1506 1504 1503
1571 1593 1599 1599 1601 1606 1611 1613 1617 1621 1621 1624 1626 1628 1629 1628 1627 1624 1620 1617 1612 1608 1604 1599 1594 1589 1584 1580 1575 1571 1567 1563 1558 1552 1547 1543 1539 1535 1531 1526 1522 1518 1514 1511 1507 1503 1500 1498 1496
1582 1595 1600 1602 1603 1607 1611 1614 1617 1620 1624 1626 1627 1628 1628 1628 1626 1623 1621 1617 1614 1609 1604 1598 1593 1588 1583 1578 1573 1568 1564 1560 1555 1550 1545 1540 1536 1532 1527 1522 1518 1513 1509 1505 1502 1498 1495 1492 1490
1589 1598 1600 1605 1606 1609 1611 1615 1618 1621 1624 1626 1626 1627 1628 1627 1625 1623 1620 1617 1613 1608 1603 1597 1592 1587 1582 1577 1572 1567 1562 1557 1553 1548 1543 1537 1532 1528 1524 1520 1515 1510 1505 1501 1497 1494 1490 1487 1485
1593 1601 1603 1606 1607 1610 1613 1616 1619 1623 1625 1626 1627 1627 1627 1626 1624 1622 1620 1616 1612 1607 1603 1598 1592 1586 1581 1576 1571 1566 1561 1556 1551 1547 1541 1536 1531 1525 1521 1517 1512 1508 1503 1498 1493 1489 1485 1483 1479
1596 1601 1606 1609 1610 1613 1615 1620 1621 1625 1625 1626 1626 1626 1626 1625 1623 1622 1619 1615 1612 1608 1603 1597 1591 1585 1580 1574 1569 1564 1559 1554 1550 1545 1540 1534 1529 1524 1519 1514 1509 1505 1500 1496 1491 1486 1481 1477 1474
1600 1606 1610 1611 1612 1616 1617 1622 1622 1624 1625 1626 1626 1625 1625 1625 1623 1621 1619 1615 1611 1607 1602 1595 1589 1584 1578 1573 1568 1563 1558 1553 1548 1543 1537 1532 1527 1522 1517 1512 1507 1502 1497 1492 1487 1483 1478 1473 1469
1603 1609 1612 1612 1613 1615 1618 1625 1623 1624 1624 1625 1625 1625 1625 1624 1622 1620 1618 1614 1610 1605 1599 1593 1588 1582 1577 1572 1567 1562 1557 1551 1546 1541 1535 1529 1524 1519 1514 1510 1505 1500 1494 1489 1484 1480 1474 1469 1464
1604 1608 1608 1611 1611 1613 1617 1623 1622 1622 1622 1623 1624 1625 1624 1623 1621 1619 1616 1612 1608 1603 1597 1591 1586 1580 1575 1570 1564 1560 1555 1549 1544 1538 1532 1526 1521 1516 1511 1507 1502 1496 1491 1486 1481 1476 1472 1467 1461
1600 1605 1608 1609 1608 1611 1616 1620 1620 1621 1621 1623 1624 1623 1623 1621 1620 1617 1614 1611 1606 1601 1595 1590 1584 1578 1573 1567 1562 1557 1552 1547 1541 1535 1529 1523 1518 1513 1508 1503 1498 1492 1487 1482 1478 1473 1469 1465 1459
1593 1600 1606 1606 1604 1610 1616 1619 1619 1620 1621 1622 1622 1621 1620 1619 1618 1616 1613 1610 1605 1599 1593 1588 1582 1576 1570 1564 1558 1553 1548 1543 1538 1532 1527 1521 1515 1510 1505 1500 1494 1489 1485 1480 1475 1470 1464 1460 1456
1595 1602 1605 1605 1604 1609 1617 1619 1619 1619 1619 1619 1619 1619 1619 1619 1617 1614 1611 1607 1602 1597 1592 1586 1581 1575 1569 1563 1558 1552 1546 1541 1535 1530 1524 1518 1513 1507 1502 1496 1491 1486 1481 1477 1472 1468 1462 1457 1455
1600 1599 1601 1604 1605 1607 1614 1618 1620 1618 1618 1618 1617 1617 1618 1617 1615 1612 1609 1605 1600 1595 1590 1584 1579 1573 1567 1561 1555 1549 1543 1537 1531 1525 1520 1515 1510 1504 1499 1493 1488 1483 1478 1474 1469 1465 1461 1455 1453
1599 1597 1597 1601 1608 1611 1610 1616 1618 1617 1617 1616 1616 1616 1616 1615 1613 1611 1607 1602 1598 1593 1588 1583 1577 1571 1565 1559 1552 1545 1539 1533 1527 1522 1516 1512 1507 1501 1495 1490 1484 1479 1475 1470 1466 1462 1458 1454 1450
1597 1594 1595 1597 1603 1608 1610 1614 1612 1615 1615 1615 1615 1615 1614 1612 1611 1608 1604 1600 1596 1591 1586 1581 1575 1569 1563 1556 1550 1543 1537 1531 1525 1519 1513 1507 1502 1497 1491 1486 1480 1475 1471 1466 1462 1458 1454 1451 1448
1595 1596 1597 1602 1606 1609 1604 1614 1603 1612 1609 1611 1612 1612 1611 1610 1608 1605 1602 1599 1594 1590 1585 1579 1573 1567 1560 1553 1547 1541 1534 1528 1521 1515 1508 1502 1497 1492 1487 1482 1476 1471 1466 1461 1457 1453 1449 1446 1443
1598 1603 1609 1605 1610 1605 1597 1605 1600 1605 1605 1607 1609 1610 1609 1608 1606 1603 1600 1597 1592 1587 1582 1576 1570 1564 1557 1551 1544 1538 1532 1525 1518 1511 1504 1498 1491 1486 1481 1477 1472 1466 1461 1456 1452 1447 1444 1441 1439
1603 1605 1613 1615 1618 1611 1599 1599 1604 1604 1605 1606 1607 1607 1607 1606 1604 1601 1599 1595 1590 1585 1579 1573 1567 1561 1555 1548 1542 1536 1529 1523 1516 1509 1502 1495 1488 1481 1476 1472 1467 1462 1457 1451 1447 1442 1439 1436 1434
1604 1610 1610 1618 1618 1619 1606 1601 1604 1603 1605 1606 1605 1605 1605 1603 1602 1600 1597 1593 1589 1583 1577 1571 1565 1559 1553 1546 1539 1533 1527 1520 1513 1506 1499 1491 1485 1478 1472 1467 1462 1457 1452 1447 1442 1437 1434 1431 1429
1603 1608 1617 1615 1618 1618 1609 1602 1598 1602 1602 1603 1603 1602 1602 1601 1600 1598 1595 1591 1587 1581 1576 1570 1564 1557 1551 1544 1537 1531 1524 1517 1510 1502 1495 1488 1482 1475 1469 1463 1457 1452 1447 1442 1437 1432 1429 1427 1424
1604 1606 1609 1617 1619 1621 1619 1602 1593 1593 1595 1598 1599 1599 1599 1600 1599 1596 1593 1590 1585 1580 1574 1568 1562 1555 1548 1542 1535 1528 1521 1514 1507 1500 1493 1486 1479 1473 1466 1460 1453 1447 1441 1436 1431 1427 1425 1422 1420
1603 1603 1608 1615 1614 1619 1622 1604 1593 1591 1592 1594 1595 1597 1598 1599 1597 1594 1591 1587 1582 1577 1571 1566 1559 1553 1546 1540 1533 1525 1518 1511 1504 1497 1491 1484 1478 1471 1464 1457 1450 1443 1436 1430 1426 1422 1420 1419 1417